www.pogodaiklimat.ru

Погода и климат >> Архив погоды >> Россия >> Якутия >> Батагай


ПОГОДА в Батагае

  • Прогноз погоды в Батагае
  • Монитор погоды в Батагае
  • Климат города

АРХИВ ПОГОДЫ в Батагае

Время (UTC), дата Ветер
(напр.,м/с)
 
Видим.   Явления Облачность Т
(С)
Тd
(С)
f
(%)
Тe
(С)
Тes
(С)
Комфортность P
(гПа)
Po
(гПа)
Тmin
(С)
Tmax
(С)
R
(мм)
R24
(мм)
S
(см)
03 9.07 С 5
{10}
50 км 10/3 1000 м
[Sc Cs]
+18.9 +9.0 53 +19 +22 1019.1 994.0
06 9.07 С 5 50 км 10/3 1000 м
[Sc Ci fib]
+18.7 +8.0 50 +19 +21 1018.7 993.6
09 9.07 С 6-11
{12}
50 км 10/0
[Ci sp]
+17.7 +6.9 49 +17 +18 1018.8 993.6 +20.3
12 9.07 СЗ 6 50 км 10/0
[Ac trans Cs]
+14.5 +6.4 58 +13 +13 1019.1 993.5
15 9.07 СЗ 4
{12}
50 км 10/3 1500 м
[Sc Cs]
+11.8 +6.1 68 +10 +10 1018.7 993.0
18 9.07 С 4
{11}
50 км 10/4 1500 м
[Cb cap Cs]
+9.4 +4.5 71 +7 +7 1018.7 992.7
21 9.07 СЗ 4 50 км 10/1 1500 м
[Cb cap Cs]
+9.2 +5.5 78 +6 +8 1018.0 992.1 +8.5
00 10.07 СЗ 2
{10}
50 км 10/0
[Ac trans Cs]
+11.6 +6.1 69 +11 +17 1016.6 991.0
03 10.07 С 2 50 км 10/0
[Ci fib]
+15.9 +6.3 53 +16 +25 1014.5 989.2
06 10.07 С 3 50 км 6/0
[Ci fib]
+18.9 +7.6 48 +20 +25 1012.1 987.2
09 10.07 С 2 50 км 10/0
[Ci fib]
+20.5 +5.6 38 +22 +24 комфорт 1009.8 985.1 +20.6
12 10.07 СВ 1 50 км 10/0
[Ci sp]
+18.0 +7.8 51 +19 +19 1008.7 983.7
15 10.07 ЮВ 2 50 км 10/0
[Cc]
+13.0 +7.7 70 +12 +12 1007.9 982.5
18 10.07 ЮВ 2 50 км 10/0
[Ci fib]
+9.4 +5.4 76 +8 +8 1006.2 980.6
21 10.07 СЗ 1 50 км 3/0
[Cc]
+15.0 +8.5 65 +16 +19 1004.0 978.9 +9.0
00 11.07 Ю 1 50 км 3/0
[Ac trans Ci fib]
+21.3 +9.6 47 +23 +31 комфорт 1001.7 977.3
03 11.07 Ю 1 50 км 3/0
[Ci fib]
+25.6 +10.9 40 +27 +39 жарко 998.7 974.7
06 11.07 ЮЗ 2 50 км 3/1 1500 м
[Cu hum Ci fib]
+29.1 +11.5 34 +30 +37 жарко 996.6 972.9
09 11.07 штиль 0 50 км 10/4 1500 м
[Cb cap Ci fib]
+28.3 +11.7 36 +29 +31 жарко 995.4 971.7 +30.3
12 11.07 С 0 50 км гроза, ливневой дождь 10/6 1000 м
[Cb cap Ac trans Ci fib]
+18.9 +15.2 79 +20 +20 998.3 973.8
15 11.07 СЗ 2 50 км {гроза, ливн. осадки} 10/6 800 м
[Cb cap Ac trans]
+17.6 +14.7 83 +18 +18 999.0 974.4
18 11.07 штиль 0 50 км {гроза, ливн. осадки} 10/5 1000 м
[Cb cap Ac trans Cs]
+15.8 +14.0 89 +16 +16 999.2 974.4
21 11.07 С 5 50 км 10/5 1500 м
[Cb cap As trans]
+15.6 +12.1 80 +14 +15 999.3 974.4 +15.3 7
00 12.07 С 3 50 км слабый ливневой дождь 10/5 300 м
[Cb cap Ac trans]
+13.8 +12.3 91 +13 +14 999.5 974.5
03 12.07 С 4 50 км {ливн. осадки} 10/6 300 м
[Cb cap Ac trans]
+13.4 +11.1 86 +12 +13 999.7 974.7
06 12.07 С 5
{10}
20 км слабый ливневой дождь 10/6 400 м
[Cb cap As trans]
+12.2 +10.3 88 +10 +10 999.2 974.1
09 12.07 СЗ 5 50 км {ливн. осадки} 10/4 1000 м
[Cb cap Ac trans Ci fib]
+15.0 +9.6 70 +14 +14 999.9 974.9 +15.6 2
12 12.07 СЗ 3 50 км {ливн. осадки} 10/4 1000 м
[Sc Ac trans Ci fib]
+13.4 +9.3 76 +12 +12 1000.5 975.5
15 12.07 СЗ 0 50 км 10/3 1000 м
[Sc Ac trans Ci fib]
+10.3 +8.5 89 +10 +10 1001.2 975.9
18 12.07 З 0 50 км 3/3 1000 м
[Sc]
+9.0 +8.2 95 +8 +8 1002.2 976.7
21 12.07 ЮЗ 2 50 км 3/3 1000 м
[Sc]
+11.1 +8.9 86 +10 +12 1002.9 977.5 +8.6
00 13.07 СЗ 2 50 км 4/1 1000 м
[Cb cap Ac trans]
+15.6 +8.1 61 +16 +21 1002.8 977.8
03 13.07 ЮЗ 2 50 км 8/4 1000 м
[Cb cap Ac trans]
+18.5 +4.3 39 +19 +23 1002.0 977.3
06 13.07 ЮЗ 4 50 км 8/4 1000 м
[Cb cap Ac trans]
+21.0 +4.1 33 +22 +24 комфорт 1000.6 976.2
09 13.07 ЮЗ 2 50 км 3/3 1000 м
[Sc diur, vesp Ac trans]
+21.1 +6.3 38 +22 +24 комфорт 1000.0 975.6 +21.2
12 13.07 штиль 0 50 км 1/0
[Ac trans]
+20.0 +6.8 42 +21 +21 комфорт 1000.0 975.5
15 13.07 С 4 50 км 10/4 1500 м
[Cb cap Ac trans Ci fib]
+14.4 +7.1 62 +13 +13 1001.5 976.5
18 13.07 С 3 50 км 10/1 1500 м
[Cb cap Ac trans Ci fib]
+12.9 +7.4 69 +12 +12 1004.4 979.0
21 13.07 С 4 50 км 1/0
[Ac trans]
+12.6 +4.8 59 +11 +13 1007.3 982.0 +12.1
00 14.07 С 3
{10}
50 км 4/4 1500 м
[Cb cap]
+14.0 +5.3 56 +13 +17 1008.5 983.2
03 14.07 СВ 5 50 км 4/4 1500 м
[Cu med, cong]
+15.3 +3.5 45 +14 +18 1009.4 984.2
06 14.07 С 5
{12}
50 км 3/3 1500 м
[Cu hum]
+15.5 +3.2 44 +14 +17 1009.7 984.5
09 14.07 С 5
{10}
50 км 10/0
[Ci fib]
+15.4 +1.9 40 +14 +15 1010.0 984.8 +16.2
12 14.07 С 4 50 км 1/0
[Ci fib]
+13.6 +2.8 48 +12 +12 1010.5 985.2
15 14.07 С 3 50 км 1/0
[Ci fib]
+8.6 +2.7 66 +6 +6 1011.1 985.2
18 14.07 С 3 50 км 1/0
[Ci fib]
+6.2 +2.6 78 +3 +3 1011.2 985.2
21 14.07 СВ 3 50 км 8/0
[Ac trans]
+7.7 +3.2 73 +5 +6 1011.1 985.2 +3.4
00 15.07 СВ 2 50 км 6/1 1500 м
[Sc Ac trans]
+14.0 +4.8 54 +14 +18 1010.0 984.7
03 15.07 С 3 50 км 6/0
[Ac trans Ci fib]
+18.8 +4.7 39 +19 +26 1007.7 982.8
06 15.07 С 2 50 км 8/3 1500 м
[Sc Ci fib]
+22.3 +4.1 30 +22 +27 комфорт 1005.9 981.4
09 15.07 СЗ 3 50 км 10/3 1500 м
[Sc Ci fib]
+22.0 +3.6 30 +22 +23 комфорт 1005.9 981.4 +23.3
12 15.07 С 5
{11}
50 км 10/0
[Ci fib]
+18.0 +4.4 41 +18 +18 1007.1 982.3
15 15.07 С 6-10
{10}
50 км 10/0
[Ac trans Ci fib]
+14.2 +2.8 46 +12 +12 1008.5 983.2
18 15.07 ЮВ 1
{10}
50 км 10/3 1500 м
[Sc Ci fib]
+7.1 +3.6 78 +6 +6 1010.1 984.2
21 15.07 С 3 50 км 10/3 1500 м
[Sc Ac trans Ci fib]
+12.2 +4.3 58 +11 +12 1010.0 984.5 +6.5
00 16.07 С 4 50 км 10/8
[Cb calv Ci fib]
+14.8 +3.1 45 +14 +15 1009.9 984.7

 

Местоположение метеостанции Батагай (Якутия, Россия): широта 67.65 долгота 134.60 высота над уровнем моря 214 м.

В архиве по умолчанию представлена погода в Батагае за последнюю неделю. Архивные данные за месяц целиком и за предыдущие месяцы, начиная с января 2011 года, Вы можете получить, выбрав интересующий диапазон дат из раскрывающегося списка и нажав кнопку "Ввод!".


*Определитесь, кто Вы:
робот инопланетянин человек

Внимание! Время в таблицах - всемирное. Для получения местного времени необходимо прибавить поправку, которая в Батагае равна 10 ч.

Смотрите также архив погоды в соседних городах и на ближайших метеорологических станциях:

Погода в Верхоянске (Якутия, Россия) (52 км)
Погода в Усть-Чарках (Якутия, Россия) (128 км)
Погода в Екюччю (Якутия, Россия) (162 км)
Погода в Батагай-Алыте (Якутия, Россия) (178 км)
Погода в Усть-Куйге (Якутия, Россия) (264 км)
Погода в Иэме (Якутия, Россия) (267 км)
Погода в Депутатском (Якутия, Россия) (286 км)
Погода в Себян-Кюеле (Якутия, Россия) (332 км)
Погода в Юбилейной (Якутия, Россия) (353 км)
Погода в Усть-Моме (Якутия, Россия) (396 км)

Пояснения к столбцам:

Ветер - указаны скорость ветра в м/с - средняя за 10 мин, порывы в срок и между сроками (в фигурных скобках) и направление, откуда дует ветер: С - северный, СВ - северо-восточный, В - восточный, ЮВ - юго-восточный, Ю - южный, ЮЗ - юго-западный, З - западный, СЗ - северо-западный.
Видимость - горизонтальная дальность видимости в метрах или километрах. При видимости от 1 до 10 км при отсутствии осадков обычно наблюдается дымка, при ухудшении видимости до 1 км и менее - туман. В сухую погоду видимость может ухудшаться дымом, пылью или мглою.
Явления - указаны атмосферные явления, наблюдавшиеся в срок или в последний час перед сроком; фигурными скобками обозначены явления, наблюдавшиеся между сроками (за 1-3 часа до срока); квадратными скобками обозначены град или гололедные отложения с указанием их диаметра в мм.
Облачность - указаны через наклонную черту общая и нижняя облачность в баллах и высота нижней границы облаков в метрах; квадратными скобками обозначены формы облаков: Ci - перистые, Cs - перисто-слоистые, Cc - перисто-кучевые, Ac - высококучевые, As - высокослоистые, Sc - слоисто-кучевые, Ns - слоисто-дождевые, Cu - кучевые, Cb - кучево-дождевые. Подробнее классификацию облаков см. в Атласе облаков (PDF).
T - Температура воздуха - температура, измеренная на высоте 2 м над землей.
Td - Температура точки росы - температура, при понижении до которой содержащийся в воздухе водяной пар достигнет насыщения.
f - Относительная влажность воздуха - влажноcть воздуха, измеренная на высоте 2 м над землей.
Te - Эффективная температура - температура, которую ощущает одетый по сезону человек в тени. Характеристика душности погоды. При расчете учитывается влияние влажности воздуха и скорости ветра на теплоощущения человека.
Tes - Эффективная температура на солнце - температура, которую ощущает человек, с поправкой на солнечный нагрев. Характеристика знойности погоды. Зависит от высоты солнца над горизонтом, облачности и скорости ветра. Ночью, в пасмурную погоду, а также при ветре 12 м/с и более поправка равна нулю.
P - Атмосферное давление - приведенное к уровню моря атмосферное давление.
Po - Атмосферное давление - измеренное на уровне метеостанции атмосферное давление.
Tmin - Минимальная температура - минимум температуры воздуха на высоте 2 м над землей.
Tmax - Максимальная температура - максимум температуры воздуха на высоте 2 м над землей.
R - Количество осадков - Количество выпавших осадков за период времени, мм. При наведении курсора мыши на число - период времени, за который выпало указанное количество осадков.
R24 - Количество осадков - Количество выпавших осадков за 24 часа, мм.
S - Снежный покров - Высота снежного покрова, см. При наведении курсора мыши на число - состояние снежного покрова и степень покрытия местности в баллах.